Weather History for KHRX - December, 2011

Change the Weather History Date:

Monday, December 5, 2011

  Actual Average (KAMA) Record (KAMA)
Temperature  
Mean Temperature 20 °F 38 °F  
Max Temperature 30 °F 51 °F 74 °F (1987)
Min Temperature 8 °F 25 °F 4 °F (1972)
Degree Days  
Heating Degree Days 45 27  
Month to date heating degree days 130  
Since 1 July heating degree days 974  
Cooling Degree Days 0 0  
Month to date cooling degree days 0  
Year to date cooling degree days 1399  
Moisture  
Dew Point 17 °F    
Average Humidity 85    
Maximum Humidity 93    
Minimum Humidity 79    
Precipitation  
Precipitation 0.00 in 0.02 in 0.60 in (1936)
Month to date precipitation 0.10  
Year to date precipitation 19.75  
Snow  
Snow 0.00 in 0.10 in 5.00 in (1992)
Month to date snowfall 0.6  
Since 1 July snowfall 3.3  
Snow Depth -    
Sea Level Pressure  
Sea Level Pressure 30.28 in    
Wind  
Wind Speed 18 mph (NNE)    
Max Wind Speed 28 mph    
Max Gust Speed 33 mph    
Visibility 4 miles    
Events Snow    
T = Trace of Precipitation, MM = Missing Value Source: NWS Daily Summary

Daily Weather History Graph

Daily Weather History Graph

Search for Another Location

Airport or City:

Trip Planner

Search our weather history database for the weather conditions in past years. The results will help you decide how hot, cold, wet, or windy it might be!

Date:

Astronomy

Dec. 05, 2011 Rise Set
Actual Time 7:41 AM CST 5:37 PM CST
Civil Twilight 7:14 AM CST 6:05 PM CST
Nautical Twilight 6:42 AM CST 6:36 PM CST
Astronomical Twilight 6:12 AM CST 7:07 PM CST
Moon 2:29 PM CST (12/5) 3:13 AM CST (12/5)
Length of Visible Light 10h 51m
Length of Day
9h 55m
Waxing Gibbous, 80% of the Moon is Illuminated
Dec 5
Waxing Gibbous
Dec 10
Full
Dec 17
Last Quarter
Dec 24
New
Jan 1
First Quarter

Hourly Weather History & Observations

Time (CST) Temp. Windchill Dew Point Humidity Pressure Visibility Wind Dir Wind Speed Gust Speed Precip Events Conditions
12:15 AM 30.2 °F 18.1 °F 26.6 °F 86% 30.17 in 7.0 mi NNE 18.4 mph - N/A Snow Light Snow
12:35 AM 28.4 °F 17.0 °F 26.6 °F 93% 30.18 in 10.0 mi NE 15.0 mph - N/A Snow Light Snow
12:55 AM 28.4 °F 17.5 °F 26.6 °F 93% 30.18 in 10.0 mi NNE 13.8 mph - N/A Snow Light Snow
1:15 AM 28.4 °F 16.6 °F 26.6 °F 93% 30.19 in 7.0 mi NE 16.1 mph - N/A Snow Light Snow
1:35 AM 28.4 °F 18.0 °F 26.6 °F 93% 30.19 in 5.0 mi NE 12.7 mph - N/A Snow Light Snow
1:55 AM 28.4 °F 18.5 °F 26.6 °F 93% 30.19 in 7.0 mi NE 11.5 mph - N/A Snow Light Snow
2:15 AM 28.4 °F 18.0 °F 26.6 °F 93% 30.20 in 5.0 mi NE 12.7 mph - N/A Snow Light Snow
2:35 AM 28.4 °F 18.0 °F 26.6 °F 93% 30.21 in 5.0 mi NE 12.7 mph - N/A Snow Light Snow
2:55 AM 28.4 °F 18.5 °F 26.6 °F 93% 30.20 in 5.0 mi NNE 11.5 mph - N/A Snow Light Snow
3:15 AM 28.4 °F 17.0 °F 26.6 °F 93% 30.20 in 3.0 mi NNE 15.0 mph - N/A Snow Light Snow
3:35 AM 28.4 °F 16.2 °F 24.8 °F 86% 30.20 in 2.5 mi NNE 17.3 mph - N/A Snow Light Snow
4:15 AM 28.4 °F 16.2 °F 24.8 °F 86% 30.21 in 4.0 mi NNE 17.3 mph - N/A Snow Light Snow
4:35 AM 26.6 °F 14.3 °F 23.0 °F 86% 30.22 in 3.0 mi NNE 16.1 mph - N/A Snow Light Snow
5:15 AM 26.6 °F 13.8 °F 23.0 °F 86% 30.22 in 2.5 mi NNE 17.3 mph 23.0 mph N/A Snow Light Snow
5:35 AM 26.6 °F 14.7 °F 23.0 °F 86% 30.22 in 2.5 mi NNE 15.0 mph - N/A Snow Light Snow
5:55 AM 26.6 °F 13.8 °F 23.0 °F 86% 30.23 in 2.5 mi NNE 17.3 mph - N/A Snow Light Snow
6:35 AM 26.6 °F 12.4 °F 23.0 °F 86% 30.24 in 2.5 mi NNE 21.9 mph 28.8 mph N/A Snow Light Snow
6:55 AM 24.8 °F 9.6 °F 21.2 °F 86% 30.25 in 2.5 mi NNE 23.0 mph - N/A Snow Light Snow
7:15 AM 24.8 °F 9.6 °F 21.2 °F 86% 30.26 in 4.0 mi NE 23.0 mph 29.9 mph N/A Snow Light Snow
7:35 AM 24.8 °F 9.6 °F 21.2 °F 86% 30.27 in 3.0 mi NNE 23.0 mph 27.6 mph N/A Snow Light Snow
7:55 AM 23.0 °F 7.2 °F 21.2 °F 93% 30.28 in 4.0 mi NNE 23.0 mph - N/A Snow Light Snow
8:15 AM 23.0 °F 8.7 °F 19.4 °F 86% 30.29 in 7.0 mi NE 18.4 mph - N/A Snow Light Snow
8:35 AM 23.0 °F 8.3 °F 19.4 °F 86% 30.31 in 5.0 mi NNE 19.6 mph 29.9 mph N/A Snow Light Snow
8:55 AM 21.2 °F 4.2 °F 17.6 °F 86% 30.31 in 1.2 mi NNE 25.3 mph 32.2 mph N/A Snow Light Snow
9:15 AM 21.2 °F 3.5 °F 17.6 °F 86% 30.32 in 0.8 mi NNE 27.6 mph 32.2 mph N/A Snow Light Snow
9:35 AM 21.2 °F 4.9 °F 17.6 °F 86% 30.32 in 0.8 mi NNE 23.0 mph 33.4 mph N/A Snow Light Snow
9:55 AM 19.4 °F 2.1 °F 15.8 °F 86% 30.33 in 1.0 mi NNE 24.2 mph 31.1 mph N/A Snow Light Snow
10:15 AM 19.4 °F 1.8 °F 14.0 °F 80% 30.33 in 0.8 mi NNE 25.3 mph 33.4 mph N/A Snow Light Snow
10:35 AM 19.4 °F 3.6 °F 15.8 °F 86% 30.34 in 1.8 mi NNE 19.6 mph 25.3 mph N/A Snow Light Snow
10:55 AM 19.4 °F 2.1 °F 14.0 °F 80% 30.35 in 1.0 mi NNE 24.2 mph 28.8 mph N/A Snow Light Snow
11:15 AM 19.4 °F 1.4 °F 14.0 °F 80% 30.33 in 1.0 mi NNE 26.5 mph 32.2 mph N/A Snow Light Snow
11:35 AM 19.4 °F 2.1 °F 14.0 °F 80% 30.33 in 1.0 mi NNE 24.2 mph 29.9 mph N/A Snow Light Snow
11:55 AM 19.4 °F 1.8 °F 14.0 °F 80% 30.32 in 1.0 mi NNE 25.3 mph 32.2 mph N/A Snow Light Snow
12:15 PM 19.4 °F 1.8 °F 14.0 °F 80% 30.32 in 1.8 mi North 25.3 mph 32.2 mph N/A Snow Light Snow
12:35 PM 19.4 °F 2.1 °F 14.0 °F 80% 30.32 in 3.0 mi North 24.2 mph 28.8 mph N/A Snow Light Snow
12:55 PM 19.4 °F 2.5 °F 14.0 °F 80% 30.31 in 5.0 mi North 23.0 mph - N/A   Haze
1:15 PM 19.4 °F 1.8 °F 14.0 °F 80% 30.31 in 3.0 mi North 25.3 mph 32.2 mph N/A Snow Light Snow
1:35 PM 19.4 °F 2.1 °F 14.0 °F 80% 30.30 in 3.0 mi NNE 24.2 mph 31.1 mph N/A Snow Light Snow
1:55 PM 19.4 °F 2.1 °F 14.0 °F 80% 30.29 in 2.5 mi North 24.2 mph - N/A Snow Light Snow
2:15 PM 19.4 °F 1.8 °F 14.0 °F 80% 30.28 in 1.0 mi NNE 25.3 mph 31.1 mph N/A Snow Light Snow
2:55 PM 19.4 °F 2.1 °F 14.0 °F 80% 30.28 in 1.0 mi North 24.2 mph 29.9 mph N/A Snow Light Snow
3:15 PM 19.4 °F 2.1 °F 14.0 °F 80% 30.27 in 2.0 mi NNE 24.2 mph - N/A Snow Light Snow
3:35 PM 19.4 °F 2.5 °F 14.0 °F 80% 30.27 in 1.2 mi North 23.0 mph - N/A Snow Light Snow
3:55 PM 19.4 °F 4.1 °F 14.0 °F 80% 30.28 in 1.0 mi North 18.4 mph 25.3 mph N/A Snow Light Snow
4:15 PM 19.4 °F 2.8 °F 14.0 °F 80% 30.28 in 1.2 mi NNE 21.9 mph 27.6 mph N/A Snow Light Snow
4:35 PM 17.6 °F 1.7 °F 14.0 °F 86% 30.28 in 1.2 mi NNE 18.4 mph 24.2 mph N/A Snow Light Snow
4:55 PM 17.6 °F 1.3 °F 14.0 °F 86% 30.29 in 1.8 mi NNE 19.6 mph - N/A Snow Light Snow
5:15 PM 17.6 °F 1.7 °F 14.0 °F 86% 30.29 in 1.2 mi NNE 18.4 mph 26.5 mph N/A Snow Light Snow
5:35 PM 17.6 °F 0.9 °F 14.0 °F 86% 30.29 in 1.0 mi NNE 20.7 mph 26.5 mph N/A Snow Light Snow
5:55 PM 17.6 °F 0.9 °F 14.0 °F 86% 30.30 in 1.5 mi NNE 20.7 mph - N/A Snow Light Snow
6:15 PM 17.6 °F 2.2 °F 12.2 °F 79% 30.31 in 3.0 mi North 17.3 mph 21.9 mph N/A Snow Light Snow
6:35 PM 17.6 °F 1.3 °F 12.2 °F 79% 30.31 in 4.0 mi North 19.6 mph 23.0 mph N/A Snow Light Snow
6:55 PM 17.6 °F 2.2 °F 12.2 °F 79% 30.32 in 5.0 mi NNE 17.3 mph - N/A   Overcast
7:15 PM 17.6 °F 2.7 °F 12.2 °F 79% 30.32 in 5.0 mi NNE 16.1 mph - N/A   Overcast
7:35 PM 17.6 °F 3.7 °F 12.2 °F 79% 30.33 in 7.0 mi NNE 13.8 mph - N/A   Overcast
7:55 PM 17.6 °F 4.3 °F 12.2 °F 79% 30.33 in 10.0 mi North 12.7 mph - N/A   Overcast
8:15 PM 17.6 °F 5.7 °F 12.2 °F 79% 30.33 in 7.0 mi North 10.4 mph - N/A Snow Light Snow
8:35 PM 15.8 °F 1.4 °F 10.4 °F 79% 30.33 in 10.0 mi NNE 13.8 mph - N/A   Mostly Cloudy
9:35 PM 14.0 °F 1.2 °F 10.4 °F 86% 30.35 in 10.0 mi North 10.4 mph - N/A   Overcast
10:15 PM 14.0 °F -0.2 °F 10.4 °F 86% 30.34 in 10.0 mi North 12.7 mph - N/A Snow Light Snow
10:35 PM 12.2 °F -0.2 °F 8.6 °F 85% 30.34 in 10.0 mi North 9.2 mph - N/A Snow Light Snow
10:55 PM 12.2 °F -1.0 °F 8.6 °F 85% 30.33 in 10.0 mi North 10.4 mph - N/A Snow Light Snow
11:15 PM 10.4 °F -3.3 °F 6.8 °F 85% 30.33 in 10.0 mi North 10.4 mph - N/A   Clear
11:35 PM 8.6 °F -2.6 °F 5.0 °F 85% 30.33 in 10.0 mi NNW 6.9 mph - N/A   Clear
11:55 PM 8.6 °F -4.7 °F 5.0 °F 85% 30.33 in 10.0 mi NNW 9.2 mph - N/A   Clear